Location: Sungai Buloh
(3.1000°N, 113.0000°E)
Time: 22:05:49
(UTC+00:00)

Cosmos 1408 Rocket - Pass Details

Date: 12 January 2026
Orbit: 594 x 623 km, 82.6° (Epoch: 10 February)

Event Time Altitude Azimuth Distance (km) Brightness Sun altitude
Rises 21:32:09 0° 175° (S) 2,894 7.4 -16.1°
Reaches altitude 10° 21:34:26 10° 170° (S) 1,984 6.6 -15.6°
Maximum altitude 21:38:43 52° 94° (E) 767 4.4 -14.6°
Drops below altitude 10° 21:42:56 10° 17° (NNE) 1,963 6.1 -13.6°
Sets 21:45:11 0° 12° (NNE) 2,860 6.9 -13.1°
